This demonstration page uses our WeatherBlox Daily Observations layout. Learn more.

Left ArrowRight Arrow

Hourly Observations for July 16, 2016

Temp ( °F °C ) Dew Point ( °F °C ) Humidity (%) Winds ( mph kmh ) Pressure ( in mb ) Visibility ( mi km ) Precip ( " mm )
12:59 am 00:59 Mostly Cloudy 74 23.3 72 22.2 94 94 SW 6 9 30.04 1017 10 16 0.01 0.25
1:59 am 01:59 Mostly Cloudy with Light Rain 74 23.3 71 21.7 91 91 SSW 6 9 30.01 1016 10 16 0.00 0.03
2:59 am 02:59 Mostly Cloudy 75 23.9 72 22.2 90 90 WSW 7 11 30.02 1017 10 16 0.01 0.25
3:59 am 03:59 Mostly Cloudy 74 23.3 71 21.7 91 91 SSW 5 7 30.02 1017 10 16 0.00 0.00
4:59 am 04:59 Mostly Cloudy 73 22.8 71 21.7 94 94 SW 7 11 30.02 1017 10 16 0.00 0.00
5:59 am 05:59 Mostly Cloudy 73 22.8 71 21.7 94 94 SSW 5 7 30.03 1017 10 16 0.00 0.00
6:59 am 06:59 Mostly Cloudy 74 23.3 71 21.7 91 91 SSW 7 11 30.05 1018 9 14 0.00 0.00
7:59 am 07:59 Mostly Cloudy 75 23.9 71 21.7 88 88 SW 6 9 30.07 1018 10 16 0.00 0.00
8:59 am 08:59 Mostly Cloudy 77 25 72 22.2 85 85 SW 8 13 30.08 1019 10 16 0.00 0.00
9:59 am 09:59 Mostly Cloudy 78 25.6 72 22.2 82 82 SSW 7 11 30.08 1019 10 16 0.00 0.00
10:59 am 10:59 Cloudy with Rain 77 25 73 22.8 88 88 SW 8 13 30.10 1019 2 3 0.00 0.03
11:17 am 11:17 Cloudy with Light Rain 77 25 73 22.8 88 88 WSW 9 15 30.12 1020 9 14 0.00 0.00
11:59 am 11:59 Mostly Cloudy 80 26.7 75 23.9 85 85 S 6 9 30.11 1020 9 14 0.04 1.02
12:59 pm 12:59 Mostly Cloudy 84 28.9 74 23.3 72 72 SSW 8 13 30.09 1019 10 16 0.01 0.25
1:59 pm 13:59 Mostly Cloudy 86 30 70 21.1 59 59 SW 12 19 30.08 1019 10 16 0.00 0.00
2:59 pm 14:59 Mostly Cloudy 85 29.4 71 21.7 63 63 SW 8 13 30.08 1019 10 16 0.00 0.00
3:59 pm 15:59 Mostly Cloudy 87 30.6 72 22.2 61 61 WSW 10 17 30.06 1018 10 16 0.00 0.00
4:59 pm 16:59 Mostly Cloudy 86 30 72 22.2 63 63 S 9 15 30.04 1017 10 16 0.00 0.00
5:59 pm 17:59 Mostly Cloudy 84 28.9 74 23.3 72 72 SSW 9 15 30.06 1018 10 16 0.00 0.00
6:59 pm 18:59 Mostly Cloudy 82 27.8 73 22.8 74 74 S 9 15 30.06 1018 10 16 0.00 0.00
7:59 pm 19:59 Mostly Cloudy 80 26.7 71 21.7 74 74 S 7 11 30.07 1018 10 16 0.00 0.00
8:59 pm 20:59 Mostly Cloudy 79 26.1 71 21.7 77 77 SSW 8 13 30.09 1019 10 16 0.00 0.00
9:59 pm 21:59 Mostly Cloudy 77 25 72 22.2 85 85 WSW 9 15 30.11 1020 10 16 0.01 0.25
10:59 pm 22:59 Mostly Cloudy 77 25 72 22.2 85 85 WSW 8 13 30.13 1020 10 16 0.00 0.00
11:59 pm 23:59 Mostly Cloudy with Light Rain 77 25 71 21.7 82 82 WNW 8 13 30.14 1021 10 16 0.01 0.25

Powered by AerisWeather